Overview Statistics Trail Chart Weather Telemetry Raw packets
 

This is the latest recevied weather packets stored in our database for station/object AB2HM. If no packets are shown the sender has not sent any weather packets the latest 10 day(s).

<< 4 5 6 7 8 9 10 >>
Time Temp. Humidity Pressure Rain* Wind** Luminosity Snow
1788356776 23.33° C 94% 1021.2 hPa 0 mm - - -
1788354969 22.78° C 94% 1020.8 hPa 0 mm - - -
1788353164 22.78° C 94% 1020.8 hPa 0 mm - - -
1788351352 22.22° C 95% 1020.4 hPa 0 mm - - -
1788349531 22.22° C 95% 1020.6 hPa 0 mm - - -
1788347722 22.22° C 95% 1020.5 hPa 0 mm - - -
1788345915 22.78° C 95% 1020.2 hPa 0 mm - - -
1788344114 22.22° C 95% 1020.2 hPa 0 mm - - -
1788342300 22.22° C 94% 1020 hPa 0 mm - - -
1788340493 22.78° C 94% 1019.7 hPa 0 mm - - -
1788338689 22.22° C 94% 1019.6 hPa 0 mm - - -
1788336880 22.78° C 94% 1019.3 hPa 0 mm - - -
1788335069 23.33° C 94% 1019.1 hPa 0 mm - - -
1788333262 22.78° C 93% 1018.9 hPa 0 mm - - -
1788331458 23.33° C 93% 1018.6 hPa 0 mm - - -
1788329619 23.33° C 93% 1018.6 hPa 0 mm - - -
1788327812 23.33° C 93% 1018.5 hPa - - - -
1788309632 26.11° C 77% 1015.2 hPa 2.03 mm - - -
1788307829 30° C 71% 1014.7 hPa 0 mm - - -
1788306025 30.56° C 68% 1014.3 hPa 0 mm - - -
1788304222 31.67° C 64% 1014.8 hPa 0 mm - - -
1788302416 31.67° C 62% 1014.9 hPa 0 mm - - -
1788300610 32.22° C 59% 1014.5 hPa 0 mm - - -
1788298794 32.78° C 57% 1014.9 hPa 0 mm - - -
1788296994 32.78° C 56% 1014.8 hPa 0 mm - - -

* Rain latest hour (hover to see other rain measurements)
** Current wind speed in m/s (hover to see current wind gust speed)